Overview Statistics Trail Chart Weather Telemetry Raw packets
 

This is the latest recevied weather packets stored in our database for station/object AI5BL. If no packets are shown the sender has not sent any weather packets the latest 10 day(s).

<< 67 68 69 70 71 72 73 >>
Time Temp. Humidity Pressure Rain* Wind** Luminosity Snow
1788181411 25° C 91% 1021.2 hPa 0 mm - 67 W/m² -
1788181110 25° C 91% 1021.3 hPa 0 mm - 59 W/m² -
1788180805 24.44° C 93% 1021.3 hPa 0 mm - 55 W/m² -
1788180505 23.89° C 94% 1021.3 hPa 0 mm - 57 W/m² -
1788180202 23.33° C 96% 1021.2 hPa 0 mm - 53 W/m² -
1788179901 23.33° C 97% 1021.1 hPa 0 mm - 52 W/m² -
1788179600 22.78° C 98% 1021 hPa 0 mm - 54 W/m² -
1788179295 22.78° C 99% 1021 hPa 0 mm - 56 W/m² -
1788178991 22.78° C 99% 1020.9 hPa 0 mm - 53 W/m² -
1788178690 22.22° C 99% 1020.9 hPa 0 mm - 45 W/m² -
1788178387 22.22° C 99% 1020.8 hPa 0 mm - 38 W/m² -
1788178082 22.22° C 99% 1020.6 hPa 0 mm - 32 W/m² -
1788177776 22.22° C 99% 1020.5 hPa 0 mm - 26 W/m² -
1788177472 22.22° C 99% 1020.6 hPa 0 mm - 21 W/m² -
1788177168 21.67° C 99% 1020.5 hPa 0 mm - 16 W/m² -
1788176867 21.67° C 99% 1020.5 hPa 0 mm - 13 W/m² -
1788176567 21.67° C 99% 1020.3 hPa 0 mm - 9 W/m² -
1788176263 21.67° C 99% 1020.4 hPa 0 mm - 6 W/m² -
1788175962 21.67° C 99% 1020.3 hPa 0 mm - 3 W/m² -
1788175662 21.67° C 99% 1020.2 hPa 0 mm - 2 W/m² -
1788175357 21.67° C 99% 1020.1 hPa 0 mm - 1 W/m² -
1788175053 22.22° C 99% 1020.1 hPa 0 mm - 0 W/m² -
1788174749 21.67° C 99% 1020.3 hPa 0 mm - 0 W/m² -
1788174444 21.67° C 99% 1020.1 hPa 0 mm - 0 W/m² -
1788174140 21.67° C 99% 1020 hPa 0 mm - 0 W/m² -

* Rain latest hour (hover to see other rain measurements)
** Current wind speed in m/s (hover to see current wind gust speed)